Date,TemperatureHighF,TemperatureAvgF,TemperatureLowF,DewpointHighF,DewpointAvgF,DewpointLowF,HumidityHigh,HumidityAvg,HumidityLow,PressureMaxIn,PressureMinIn,WindSpeedMaxMPH,WindSpeedAvgMPH,GustSpeedMaxMPH,PrecipitationSumIn
2013-1-1,40,34,27,22,9,-2,64,36,22,30.44,30.29,11,2,11,0.06
2013-1-2,36,22,14,7,-5,-32,63,31,10,30.63,30.44,51,3,51,0.06
2013-1-3,31,19,7,-6,-18,-26,33,19,10,30.71,30.59,5,1,7,0.06
2013-1-4,44,34,20,15,7,-10,61,36,10,30.61,30.38,12,3,12,0.12
2013-1-5,47,34,23,15,7,-9,63,38,10,30.83,30.43,9,2,9,0.14
2013-1-6,47,35,23,28,22,-10,78,61,34,30.81,30.50,10,1,10,0.17
2013-1-7,42,32,23,24,20,-15,79,63,44,30.98,30.53,11,2,11,0.01
2013-1-8,51,38,23,30,22,12,82,55,21,30.97,30.85,17,2,17,0.01
2013-1-9,47,40,23,36,29,17,82,67,46,30.97,30.57,11,2,11,0.01
2013-1-10,52,41,32,31,7,-7,62,27,10,31.08,30.59,103,4,103,0.02
2013-1-11,43,38,27,29,24,19,75,58,43,31.07,30.84,4,1,4,0.02
2013-1-12,46,43,34,41,37,-10,89,82,14,30.84,30.69,4,1,4,0.21
2013-1-13,51,48,40,50,47,-4,99,96,10,30.73,30.59,7,2,7,0.22
2013-1-14,67,54,45,59,42,19,99,69,33,30.83,30.48,7,2,99,0.22
2013-1-15,130,39,36,34,29,15,85,67,45,30.86,30.79,7,2,7,0.43
2013-1-16,41,37,27,39,35,22,94,91,63,30.82,30.33,5,1,5,0.93
2013-1-17,50,39,31,33,23,12,94,56,24,30.64,30.41,10,1,10,0.93
2013-1-18,32,24,16,16,-10,-25,68,25,10,31.05,30.59,16,4,16,0.01
2013-1-19,50,42,16,30,24,-3,64,50,27,31.03,30.49,18,4,18,0.07
2013-1-20,59,46,30,37,12,-16,73,29,10,30.47,30.12,17,4,17,0.00
2013-1-21,33,28,20,18,-6,-22,72,28,10,30.68,30.45,11,2,11,0.00
2013-1-22,33,21,10,18,-13,-28,75,26,10,30.64,30.34,50,4,50,0.01
2013-1-23,19,10,5,-14,-21,-34,31,23,10,30.71,30.63,11,1,11,0.02
2013-1-24,21,14,2,-24,-30,-36,27,11,10,30.74,30.61,12,3,12,0.02
2013-1-25,31,20,6,1,-22,-34,45,15,10,30.86,30.62,10,2,10,0.02
2013-1-26,32,21,15,4,-18,-31,62,20,10,30.77,30.56,9,3,9,0.02
2013-1-27,49,24,15,-11,-20,-28,26,13,10,31.02,30.77,14,3,14,0.02
2013-1-28,34,30,15,26,4,-20,79,44,10,31.02,30.56,5,1,5,0.02
2013-1-29,36,33,32,33,28,26,94,82,78,30.77,30.40,3,0,3,0.24
2013-1-30,62,56,33,58,53,-36,99,90,75,30.75,30.15,18,6,18,0.30
2013-1-31,60,47,5,59,22,-14,96,45,10,30.16,29.60,22,5,22,1.07